Weather Roundup
Issued by NWS

Home | Current Version | Previous Version | Text Only | Print | Product List | Glossary On
Versions: 1 2 3 4 5 6 7 8 9 10 11 12 13 14 15 16 17 18 19 20 21 22 23 24 25 26 27 28 29 30 31 32 33 34 35 36 37 38 39 40 41 42 43 44 45 46 47 48 49 50
000
NZUS93 KARX 310459
HRRWXR

CURRENT HOURLY OBSERVATIONS ACROSS
MUCH OF THE UPPER MISSISSIPPI VALLEY
NATIONAL WEATHER SERVICE LA CROSSE WI
1200 AM CDT MON AUG 31 2015


...SOUTHEAST MINNESOTA...


CITY           SKY/WX    TMP DP  RH WIND       PRES   REMARKS
ROCHESTER      CLEAR     60  59  96 S7        29.99F FOG
ROCHESTER/MAYO FAIR      64  64 100 SE5       29.99R
WINONA         CLEAR     61  61 100 CALM      29.99R FOG
AUSTIN         NOT AVBL
ALBERT LEA     CLEAR     64  63  94 S6        29.98S FOG
DODGE CENTER   PTCLDY    64  63  94 S9        29.98S
PRESTON        CLEAR     61  59  94 S6        30.01R FOG
OWATONNA       CLEAR     64  63  94 S9        29.97S
FARIBAULT      CLEAR     64  63  94 S5        29.96S
$$

...ELSEWHERE IN MINNESOTA...


CITY           SKY/WX    TMP DP  RH WIND       PRES   REMARKS
MINNEAPOLIS    MOCLDY    69  64  84 S7        29.93S
INTNL FALLS    NOT AVBL
DULUTH         FAIR      67  64  90 SW9       29.90R
RED WING       CLEAR     66  63  88 S3        29.95S
REDWOOD FALLS  MOCLDY    67  64  90 S9        29.89F
MANKATO        CLEAR     64  61  88 S7        29.95R
WORTHINGTON    PTCLDY    64  61  88 S12       29.94S
FAIRMONT       CLEAR     66  61  82 S10       29.95S
$$

...SOUTHWEST WISCONSIN...


CITY           SKY/WX    TMP DP  RH WIND       PRES   REMARKS
LA CROSSE      CLEAR     65  63  93 S5        29.99R
PRAIRIE DU CHI CLEAR     63  62  95 CALM      30.01S
BOSCOBEL       FOG       59  58  96 CALM      30.02R VSB 1/4
LONE ROCK      CLOUDY    62  60  93 E3        30.02S FOG
PLATTEVILLE    CLEAR     63  63  99 S5        30.03S
FORT MC COY    CLEAR     58  57  96 CALM      30.01R
CAMP DOUGLAS   FOG       57  57 100 NE2       30.00S VSB 1/4
VIROQUA          N/A     63  63 100 S5        30.02S
WIS DELLS      CLEAR     63  61  94 S3        30.02S
$$

...ELSEWHERE IN WISCONSIN...


CITY           SKY/WX    TMP DP  RH WIND       PRES   REMARKS
MILWAUKEE      CLEAR     63  61  93 SW5       30.03S FOG
MADISON        CLEAR     66  63  90 S6        30.02S
GREEN BAY      CLEAR     62  61  96 S5        30.00R FOG
EAU CLAIRE     NOT AVBL
BLACK RVR FLS  FOG       55  55 100 CALM      29.98S VSB<1/4
MEDFORD        CLEAR     60  60 100 S5        30.00S FOG
WAUSAU         CLEAR     65  62  90 CALM      29.99R
WIS RAPIDS     FOG       61  59  93 CALM      30.01S VSB 1/2
MARSHFIELD     FOG       62  59  90 SW5       30.00S VSB 1/4
RICE LAKE      CLEAR     61  60  94 SE3       29.97S
$$

...NORTHEAST IOWA...


CITY           SKY/WX    TMP DP  RH WIND       PRES   REMARKS
DECORAH        CLOUDY    63  63 100 S5        30.01R
MASON CITY     CLEAR     60  59  96 S7        30.01R FOG
CHARLES CITY   CLEAR     63  63 100 S6        30.01S FOG
OELWEIN          N/A     61  61 100 S5        30.02S FOG
$$

...ELSEWHERE IN IOWA...


CITY           SKY/WX    TMP DP  RH WIND       PRES   REMARKS
DES MOINES     PTCLDY    69  66  90 S6        29.99S
IOWA CITY      CLEAR     64  61  90 CALM      30.03R
FORT DODGE     CLEAR     64  61  88 CALM      29.99S
$$

...NORTHERN ILLINOIS...


CITY           SKY/WX    TMP DP  RH WIND       PRES   REMARKS
CHICAGO-OHARE  CLEAR     64  63  96 SE3       30.04S FOG
CHICAGO-MIDWAY CLEAR     69  64  84 E3        30.04R
MOLINE         CLEAR     63  61  93 CALM      30.02S FOG
ROCKFORD       CLEAR     63  60  90 SE3       30.05S
PEORIA         CLEAR     70  65  84 E5        30.03R
$$

NOTE: "FAIR" INDICATES FEW OR NO CLOUDS BELOW 12,000 FEET WITH NO
SIGNIFICANT WEATHER AND/OR OBSTRUCTIONS TO VISIBILITY. WIND
SPEEDS ARE IN MILES-PER-HOUR.



USA.gov is the U.S. government's official web portal to all federal, state and local government web resources and services.